Location: Trebic
(49.2170°N, 15.8830°E)
Time: 10:43:47
(UTC+02:00)

Transit 4A - Pass Details

Date: 29 July 2019
Orbit: 863 x 981 km, 66.8° (Epoch: 24 August)

Event Time Altitude Azimuth Distance (km) Brightness Sun altitude
Exits shadow 23:22:17 22° 117° (ESE) 1,999 9.2 -18.5°
Maximum altitude 23:23:05 22° 106° (ESE) 1,976 9.2 -18.6°
Drops below altitude 10° 23:27:51 10° 58° (ENE) 2,740 10.4 -18.9°
Sets 23:30:58 0° 44° (NE) 3,689 11.3 -19.1°
